Time,TemperatureF,DewpointF,PressureIn,WindDirection,WindDirectionDegrees,WindSpeedMPH,WindSpeedGustMPH,Humidity,HourlyPrecipIn,Conditions,Clouds,dailyrainin,SoftwareType,DateUTC
2013-08-06 00:14:00,62.6,60.0,30.00,WNW,285,0.0,0.0,90,0.00,,,0.00,weatherlink.com 1.10,2013-08-06 04:14:00,
2013-08-06 00:29:00,62.4,60.0,30.00,WNW,285,0.0,0.0,90,0.00,,,0.00,weatherlink.com 1.10,2013-08-06 04:29:00,
2013-08-06 00:45:00,62.2,60.0,30.01,WNW,285,0.0,0.0,91,0.00,,,0.00,weatherlink.com 1.10,2013-08-06 04:45:00,
2013-08-06 01:00:00,62.0,59.0,30.00,WNW,285,0.0,0.0,91,0.00,,,0.00,weatherlink.com 1.10,2013-08-06 05:00:00,
2013-08-06 01:15:00,61.9,60.0,30.00,WNW,284,0.0,0.0,92,0.00,,,0.00,weatherlink.com 1.10,2013-08-06 05:15:00,
2013-08-06 01:30:00,61.8,60.0,30.00,WNW,284,0.0,0.0,92,0.00,,,0.00,weatherlink.com 1.10,2013-08-06 05:30:00,
2013-08-06 01:45:00,61.7,59.0,30.00,WNW,285,0.0,0.0,92,0.00,,,0.00,weatherlink.com 1.10,2013-08-06 05:45:00,
2013-08-06 02:00:00,61.8,60.0,30.00,WNW,285,0.0,0.0,93,0.00,,,0.00,weatherlink.com 1.10,2013-08-06 06:00:00,
2013-08-06 02:15:00,61.9,60.0,30.00,WNW,285,0.0,0.0,93,0.00,,,0.00,weatherlink.com 1.10,2013-08-06 06:15:00,
2013-08-06 02:30:00,62.0,60.0,30.00,WNW,285,0.0,0.0,92,0.00,,,0.00,weatherlink.com 1.10,2013-08-06 06:30:00,
2013-08-06 02:45:00,62.2,60.0,30.00,WNW,285,0.0,0.0,92,0.00,,,0.00,weatherlink.com 1.10,2013-08-06 06:45:00,
2013-08-06 03:00:00,62.2,60.0,30.00,WNW,284,0.0,0.0,93,0.00,,,0.00,weatherlink.com 1.10,2013-08-06 07:00:00,
2013-08-06 03:15:00,62.3,60.0,30.00,WNW,284,0.0,0.0,93,0.00,,,0.00,weatherlink.com 1.10,2013-08-06 07:15:00,
2013-08-06 03:30:00,62.4,60.0,30.00,WNW,285,0.0,0.0,93,0.00,,,0.00,weatherlink.com 1.10,2013-08-06 07:30:00,
2013-08-06 03:45:00,62.4,60.0,29.99,WNW,285,0.0,0.0,93,0.00,,,0.00,weatherlink.com 1.10,2013-08-06 07:45:00,
2013-08-06 04:00:00,62.4,60.0,29.99,WNW,285,0.0,0.0,93,0.00,,,0.00,weatherlink.com 1.10,2013-08-06 08:00:00,
2013-08-06 04:15:00,62.5,61.0,29.98,WNW,285,0.0,0.0,93,0.00,,,0.00,weatherlink.com 1.10,2013-08-06 08:15:00,
2013-08-06 04:30:00,62.6,61.0,29.98,WNW,285,0.0,0.0,93,0.00,,,0.00,weatherlink.com 1.10,2013-08-06 08:30:00,
2013-08-06 04:45:00,62.6,61.0,29.99,WNW,285,0.0,0.0,93,0.00,,,0.00,weatherlink.com 1.10,2013-08-06 08:45:00,
2013-08-06 05:00:00,62.5,61.0,29.99,WNW,285,0.0,0.0,93,0.00,,,0.00,weatherlink.com 1.10,2013-08-06 09:00:00,
2013-08-06 05:15:00,62.5,60.0,29.99,WNW,284,0.0,0.0,92,0.00,,,0.00,weatherlink.com 1.10,2013-08-06 09:15:00,
2013-08-06 05:30:00,62.8,61.0,29.99,West,272,1.0,2.0,92,0.00,,,0.00,weatherlink.com 1.10,2013-08-06 09:30:00,
2013-08-06 05:45:00,62.8,61.0,30.00,West,272,0.0,0.0,92,0.00,,,0.00,weatherlink.com 1.10,2013-08-06 09:45:00,
2013-08-06 06:00:00,62.8,61.0,30.00,West,272,0.0,0.0,92,0.00,,,0.00,weatherlink.com 1.10,2013-08-06 10:00:00,
2013-08-06 06:15:00,62.9,61.0,30.00,West,272,0.0,1.0,93,0.09,,,0.09,weatherlink.com 1.10,2013-08-06 10:15:00,
2013-08-06 06:30:00,62.8,61.0,30.00,West,272,0.0,0.0,94,0.13,,,0.13,weatherlink.com 1.10,2013-08-06 10:30:00,
2013-08-06 06:45:00,62.7,61.0,30.00,West,272,0.0,0.0,94,0.13,,,0.13,weatherlink.com 1.10,2013-08-06 10:45:00,
2013-08-06 07:00:00,62.5,61.0,30.00,West,272,0.0,0.0,95,0.22,,,0.22,weatherlink.com 1.10,2013-08-06 11:00:00,
2013-08-06 07:15:00,62.5,61.0,30.00,West,272,0.0,0.0,95,0.24,,,0.33,weatherlink.com 1.10,2013-08-06 11:15:00,
2013-08-06 07:30:00,62.7,62.0,30.00,West,272,0.0,0.0,96,0.29,,,0.42,weatherlink.com 1.10,2013-08-06 11:30:00,
2013-08-06 07:45:00,63.0,62.0,30.01,West,275,0.0,2.0,96,0.34,,,0.47,weatherlink.com 1.10,2013-08-06 11:45:00,
2013-08-06 08:00:00,62.9,62.0,30.01,West,275,0.0,2.0,96,0.30,,,0.52,weatherlink.com 1.10,2013-08-06 12:00:00,
2013-08-06 08:15:00,62.9,62.0,30.01,West,275,0.0,0.0,96,0.27,,,0.60,weatherlink.com 1.10,2013-08-06 12:15:00,
2013-08-06 08:30:00,62.6,62.0,30.01,West,275,0.0,0.0,96,0.26,,,0.68,weatherlink.com 1.10,2013-08-06 12:30:00,
2013-08-06 08:45:00,62.6,62.0,30.02,West,275,0.0,0.0,97,0.25,,,0.72,weatherlink.com 1.10,2013-08-06 12:45:00,
2013-08-06 09:00:00,63.0,62.0,30.01,West,275,0.0,0.0,97,0.25,,,0.77,weatherlink.com 1.10,2013-08-06 13:00:00,
2013-08-06 09:15:00,63.2,62.0,30.01,West,275,0.0,0.0,97,0.19,,,0.80,weatherlink.com 1.10,2013-08-06 13:15:00,
2013-08-06 09:30:00,63.6,63.0,30.01,West,275,0.0,0.0,97,0.11,,,0.80,weatherlink.com 1.10,2013-08-06 13:30:00,
2013-08-06 09:45:00,64.2,64.0,30.01,West,275,0.0,0.0,98,0.09,,,0.81,weatherlink.com 1.10,2013-08-06 13:45:00,
2013-08-06 10:00:00,64.8,64.0,30.02,West,275,0.0,0.0,98,0.04,,,0.81,weatherlink.com 1.10,2013-08-06 14:00:00,
2013-08-06 10:15:00,65.3,65.0,30.02,NNW,332,0.0,0.0,98,0.01,,,0.81,weatherlink.com 1.10,2013-08-06 14:15:00,
2013-08-06 10:30:00,65.7,65.0,30.02,NNW,332,0.0,1.0,98,0.01,,,0.81,weatherlink.com 1.10,2013-08-06 14:30:00,
2013-08-06 10:45:00,65.7,65.0,30.02,NNW,332,0.0,0.0,97,0.00,,,0.81,weatherlink.com 1.10,2013-08-06 14:45:00,
2013-08-06 11:00:00,66.0,66.0,30.02,NNW,332,0.0,0.0,98,0.00,,,0.81,weatherlink.com 1.10,2013-08-06 15:00:00,
2013-08-06 11:15:00,66.4,66.0,30.02,NNW,332,0.0,0.0,98,0.00,,,0.81,weatherlink.com 1.10,2013-08-06 15:15:00,
2013-08-06 11:30:00,66.7,66.0,30.03,NNW,332,0.0,0.0,98,0.00,,,0.81,weatherlink.com 1.10,2013-08-06 15:30:00,
2013-08-06 11:45:00,66.6,66.0,30.03,NNW,332,0.0,1.0,98,0.00,,,0.81,weatherlink.com 1.10,2013-08-06 15:45:00,
2013-08-06 12:00:00,66.7,66.0,30.03,NNW,331,0.0,1.0,98,0.00,,,0.81,weatherlink.com 1.10,2013-08-06 16:00:00,
2013-08-06 12:15:00,66.7,66.0,30.03,NNW,331,0.0,1.0,98,0.00,,,0.81,weatherlink.com 1.10,2013-08-06 16:15:00,
2013-08-06 12:30:00,68.0,68.0,30.02,NNW,330,0.0,1.0,98,0.00,,,0.81,weatherlink.com 1.10,2013-08-06 16:30:00,
2013-08-06 12:45:00,68.6,68.0,30.02,NW,326,0.0,2.0,97,0.00,,,0.81,weatherlink.com 1.10,2013-08-06 16:45:00,
2013-08-06 13:00:00,69.2,68.0,30.02,NW,323,0.0,1.0,97,0.00,,,0.81,weatherlink.com 1.10,2013-08-06 17:00:00,
2013-08-06 13:15:00,69.6,69.0,30.02,WNW,301,0.0,2.0,96,0.00,,,0.81,weatherlink.com 1.10,2013-08-06 17:15:00,
2013-08-06 13:30:00,70.6,69.0,30.02,WNW,300,0.0,1.0,94,0.00,,,0.81,weatherlink.com 1.10,2013-08-06 17:30:00,
2013-08-06 13:46:00,72.1,70.0,30.02,WNW,300,0.0,1.0,93,0.00,,,0.81,weatherlink.com 1.10,2013-08-06 17:46:00,
2013-08-06 14:01:00,72.2,70.0,30.01,WNW,300,0.0,1.0,91,0.00,,,0.81,weatherlink.com 1.10,2013-08-06 18:01:00,
2013-08-06 14:16:00,72.0,69.0,30.01,WNW,300,0.0,1.0,90,0.00,,,0.81,weatherlink.com 1.10,2013-08-06 18:16:00,
2013-08-06 14:31:00,71.7,69.0,30.01,WNW,301,0.0,0.0,90,0.00,,,0.81,weatherlink.com 1.10,2013-08-06 18:31:00,
2013-08-06 14:46:00,72.7,70.0,30.01,WNW,299,0.0,1.0,92,0.00,,,0.81,weatherlink.com 1.10,2013-08-06 18:46:00,
2013-08-06 15:01:00,75.2,72.0,30.00,WNW,300,0.0,1.0,90,0.00,,,0.81,weatherlink.com 1.10,2013-08-06 19:01:00,
2013-08-06 15:16:00,76.4,71.0,30.01,WNW,300,0.0,1.0,84,0.00,,,0.81,weatherlink.com 1.10,2013-08-06 19:16:00,
2013-08-06 15:31:00,76.1,71.0,30.01,SSE,161,1.0,3.0,85,0.00,,,0.81,weatherlink.com 1.10,2013-08-06 19:31:00,
2013-08-06 15:46:00,76.0,71.0,30.00,SE,128,0.0,4.0,85,0.00,,,0.81,weatherlink.com 1.10,2013-08-06 19:46:00,
2013-08-06 16:01:00,74.4,70.0,30.00,SSE,160,0.0,3.0,85,0.00,,,0.81,weatherlink.com 1.10,2013-08-06 20:01:00,
2013-08-06 16:16:00,73.8,70.0,30.00,SE,146,0.0,5.0,87,0.00,,,0.81,weatherlink.com 1.10,2013-08-06 20:16:00,
2013-08-06 16:31:00,73.7,70.0,30.01,SSE,164,0.0,3.0,87,0.00,,,0.81,weatherlink.com 1.10,2013-08-06 20:31:00,
2013-08-06 16:46:00,73.3,69.0,30.01,SSE,164,0.0,3.0,87,0.00,,,0.81,weatherlink.com 1.10,2013-08-06 20:46:00,
2013-08-06 17:01:00,73.0,69.0,30.01,SSE,158,0.0,3.0,88,0.00,,,0.81,weatherlink.com 1.10,2013-08-06 21:01:00,
2013-08-06 17:16:00,72.7,69.0,30.01,SE,138,0.0,3.0,88,0.00,,,0.81,weatherlink.com 1.10,2013-08-06 21:16:00,
2013-08-06 17:31:00,72.6,69.0,30.01,SSE,161,0.0,3.0,89,0.00,,,0.81,weatherlink.com 1.10,2013-08-06 21:31:00,
2013-08-06 18:01:00,72.8,70.0,30.00,SSE,162,0.0,2.0,89,0.00,,,0.81,weatherlink.com 1.10,2013-08-06 22:01:00,
2013-08-06 18:16:00,72.6,69.0,30.00,SSE,163,0.0,3.0,89,0.00,,,0.81,weatherlink.com 1.10,2013-08-06 22:16:00,
2013-08-06 18:31:00,72.3,69.0,30.00,SSE,161,0.0,3.0,88,0.00,,,0.81,weatherlink.com 1.10,2013-08-06 22:31:00,
2013-08-06 18:46:00,72.3,69.0,30.00,SSE,161,0.0,1.0,89,0.00,,,0.81,weatherlink.com 1.10,2013-08-06 22:46:00,
2013-08-06 19:16:00,71.9,69.0,30.01,SSE,161,0.0,0.0,90,0.00,,,0.81,weatherlink.com 1.10,2013-08-06 23:16:00,
2013-08-06 19:31:00,71.7,68.0,30.01,SSE,161,0.0,1.0,89,0.00,,,0.81,weatherlink.com 1.10,2013-08-06 23:31:00,
2013-08-06 19:46:00,71.3,68.0,30.01,SSE,155,0.0,1.0,89,0.00,,,0.81,weatherlink.com 1.10,2013-08-06 23:46:00,
2013-08-06 20:01:00,70.8,68.0,30.02,South,183,0.0,1.0,89,0.00,,,0.81,weatherlink.com 1.10,2013-08-07 00:01:00,
2013-08-06 20:16:00,70.4,67.0,30.03,South,183,0.0,1.0,90,0.00,,,0.81,weatherlink.com 1.10,2013-08-07 00:16:00,
2013-08-06 20:31:00,69.9,67.0,30.03,South,183,0.0,1.0,91,0.00,,,0.81,weatherlink.com 1.10,2013-08-07 00:31:00,
2013-08-06 20:46:00,69.6,67.0,30.02,South,183,0.0,0.0,91,0.00,,,0.81,weatherlink.com 1.10,2013-08-07 00:46:00,
2013-08-06 21:01:00,69.3,67.0,30.03,South,183,0.0,0.0,91,0.00,,,0.81,weatherlink.com 1.10,2013-08-07 01:01:00,
2013-08-06 21:16:00,68.9,67.0,30.04,South,183,0.0,0.0,92,0.00,,,0.81,weatherlink.com 1.10,2013-08-07 01:16:00,
2013-08-06 21:31:00,68.6,67.0,30.04,South,183,0.0,0.0,93,0.00,,,0.81,weatherlink.com 1.10,2013-08-07 01:31:00,
2013-08-06 21:46:00,68.5,67.0,30.04,South,183,0.0,0.0,93,0.00,,,0.81,weatherlink.com 1.10,2013-08-07 01:46:00,
2013-08-06 22:01:00,68.2,66.0,30.04,South,183,0.0,0.0,93,0.00,,,0.81,weatherlink.com 1.10,2013-08-07 02:01:00,
2013-08-06 22:16:00,68.1,66.0,30.04,South,183,0.0,0.0,94,0.00,,,0.81,weatherlink.com 1.10,2013-08-07 02:16:00,
2013-08-06 22:31:00,68.0,66.0,30.04,South,183,0.0,0.0,94,0.00,,,0.81,weatherlink.com 1.10,2013-08-07 02:31:00,
2013-08-06 22:46:00,67.8,66.0,30.04,South,183,0.0,0.0,94,0.00,,,0.81,weatherlink.com 1.10,2013-08-07 02:46:00,
2013-08-06 23:01:00,67.6,66.0,30.04,South,183,0.0,0.0,94,0.00,,,0.81,weatherlink.com 1.10,2013-08-07 03:01:00,
2013-08-06 23:16:00,67.6,66.0,30.04,South,183,0.0,0.0,95,0.00,,,0.81,weatherlink.com 1.10,2013-08-07 03:16:00,
2013-08-06 23:31:00,67.6,66.0,30.04,South,183,0.0,1.0,95,0.00,,,0.81,weatherlink.com 1.10,2013-08-07 03:31:00,
2013-08-06 23:46:00,67.6,66.0,30.04,South,183,0.0,0.0,95,0.00,,,0.81,weatherlink.com 1.10,2013-08-07 03:46:00,